Miscellaneous Local Product
Issued by NWS North Platte, NE

Home | Current Version | Previous Version | Text Only | Print | Product List | Glossary On
Versions: 1 2 3 4 5 6 7 8 9 10 11 12 13 14 15 16 17 18 19 20 21 22 23 24 25 26 27 28 29 30 31 32 33 34 35 36 37 38 39 40 41 42 43 44 45 46 47 48 49 50
000
AXUS43 KLBF 270410
MISLBF


WESTERN AND NORTH CENTRAL NEBRASKA HOURLY WEATHER ROUNDUP
NATIONAL WEATHER SERVICE NORTH PLATTE NE
1100 PM CDT WED AUG 26 2015

NOTE: "FAIR" INDICATES FEW OR NO CLOUDS BELOW 12,000 FEET WITH NO
SIGNIFICANT WEATHER AND/OR OBSTRUCTIONS TO VISIBILITY.

NOTE: STATIONS NOT REPORTING VARIABLES SUCH AS SKY/WEATHER OR
PRESSURE ARE PROVIDED BY THE NEBRASKA DEPARTMENT OF
ROADS...RAWS...AND APRS NETWORKS...AND ARE NOT UNDER
NATIONAL WEATHER SERVICE QUALITY CONTROL.

...OBSERVATIONS IN AND NEAR THE EASTERN PANHANDLE OF NEBRASKA...

CITY           SKY/WX    TMP DP  RH WIND       PRES   REMARKS
PINE RIDGE     CLOUDY    84  61  45 W13       29.99R
CHADRON        CLOUDY    79  54  41 NE6       29.95R
ALLIANCE       CLOUDY    83  49  30 S14       29.99F
SIDNEY         CLOUDY    74  40  29 S10       30.07R
CRESCENT LAKE    N/A     79  58  47 S7G16       N/A
BIG SPRINGS      N/A     73  49  43 S9          N/A
$$

...OBSERVATIONS IN NORTH CENTRAL NEBRASKA...

CITY           SKY/WX    TMP DP  RH WIND       PRES   REMARKS
THEDFORD       CLOUDY    77  70  77 SE10      30.01F
AINSWORTH      MOCLDY    77  69  76 S14       30.00F
O`NEILL        PTCLDY    73  67  83 SE10      30.03F
ORD            PTCLDY    73  66  78 SE9       30.02S
BROKEN BOW     CLOUDY    76  68  76 SE10G18   30.02F
SPRINGVIEW       N/A     76  69  79 E3          N/A
SARGENT          N/A     73  68  85 CALM        N/A
CHAMBERS         N/A     70  65  85 E7          N/A
EWING            N/A     68  64  85 CALM        N/A
$$

...OBSERVATIONS IN SOUTHWEST NEBRASKA AND FAR NORTHEAST COLORADO...

CITY           SKY/WX    TMP DP  RH WIND       PRES   REMARKS
WRAY           FAIR      82  42  25 S17       30.06R
HOLYOKE        FAIR      77  45  31 S9        30.05S
IMPERIAL       MOCLDY    78  45  30 S13       30.02R
OGALLALA       PTCLDY    73  63  70 NE5       30.00F
NORTH PLATTE   MOCLDY    72  69  90 E10       30.00F
MCCOOK         PTCLDY    80  50  34 SE3       30.00R
LEXINGTON      MOCLDY    75  71  86 SE10      30.02S
PAXTON           N/A     74  67  78 SE5         N/A
BRADY            N/A     72  68  88 CALM        N/A
CALLAWAY         N/A     75  72  90 SE12        N/A
$$

...OBSERVATIONS IN CENTRAL LINCOLN COUNTY AREA...

CITY           SKY/WX    TMP DP  RH WIND       PRES   REMARKS
N.P. AIRPORT   MOCLDY    72  69  90 E10       30.00F
N.P. DOWNTOWN    N/A     76  70  81 CALM        N/A
N.P. SOUTHEAST   N/A     76  70  82 SE3         N/A
$$

...SOME OBSERVATIONS FROM AROUND THE REGION...

CITY           SKY/WX    TMP DP  RH WIND       PRES   REMARKS
DENVER         MOCLDY    76  43  30 S18       30.13R
LARAMIE        CLOUDY    62  46  55 W3        30.30R
CHEYENNE       MOCLDY    69  46  43 W10       30.20R
SCOTTSBLUFF    CLOUDY    79  48  33 NE10      30.00F
RAPID CITY     TSTM      70  64  81 W30G39    30.10R SQUALL
PIERRE         PTCLDY    72  67  84 E16       29.93F
WINNER         FAIR      79  67  66 SE15      29.95F
SIOUX FALLS    CLOUDY    67  61  81 S9        30.07S
OMAHA          PTCLDY    69  61  75 SE9       30.09S
GRAND ISLAND   CLEAR     73  63  70 SE12      30.05S
KANSAS CITY    MOCLDY    69  60  73 SE12      30.12F
WICHITA        PTCLDY    78  72  81 SE9       30.06R
HAYS           PTCLDY    81  64  57 S9        30.03S
LIBERAL        CLOUDY    77  59  53 S9        30.13R
GOODLAND       MOCLDY    78  48  34 S15       30.09R
$$



USA.gov is the U.S. government's official web portal to all federal, state and local government web resources and services.